Home   Weather   Glendale   Past weeks

Flag for USA Past Weather in Glendale, Arizona, USA — Yesterday and Last 2 Weeks

Now
85 °F

Clear.


Feels Like: 82 °F
Forecast: 80 / 103 °F
Wind: 6 mph from Northeast

Location: Phoenix-Deer Valley Municipal Airport

Current Time: Aug 30, 2016 at 2:24:05 AM

Latest Report: Aug 30, 2016 at 1:53 AM


Visibility: 10 mi

Pressure: 29.77 "Hg

Humidity: 23%

Dew Point: 43 °F

Location of GlendaleLocation

Past Weather in Glendale — Graph

°F

Glendale Temperature Yesterday

Maximum temperature yesterday: 103 °F (at 4:53 PM)
Minimum temperature yesterday: 79 °F (at 4:53 AM)
Average temperature yesterday: 92 °F

High & Low Weather Summary for the Past Weeks

 TemperatureHumidityPressure
High107 °F (Aug 16, 2:53 PM)81% (Aug 23, 2:53 AM)29.98 "Hg (Aug 23, 2:53 AM)
Low71 °F (Aug 23, 2:53 AM)13% (Aug 17, 3:53 PM)29.65 "Hg (Aug 19, 5:53 PM)
Average89 °F32%29.81 "Hg
* Reported Aug 15 12:53 AM — Aug 30 12:53 AM, Glendale, Weather by CustomWeather, © 2016

Note: Actual official high and low records may vary slightly from our data, if they occured in-between our weather recording intervals... More about our weather records

Advertising

Glendale Weather History for the Previous 24 Hours

Scroll right to see more
 ConditionsComfort  
Time TempWeatherWind HumidityBarometerVisibility
12:53 AM
Tue, Aug 30
87 °FClear.7 mph22%29.77 "Hg10 mi
11:53 PM
Mon, Aug 29
87 °FClear.7 mph22%29.77 "Hg10 mi
10:53 PM91 °FClear.5 mph18%29.77 "Hg10 mi
9:53 PM95 °FClear.7 mph15%29.76 "Hg10 mi
8:53 PM94 °FClear.5 mph18%29.76 "Hg10 mi
7:53 PM96 °FClear.6 mph16%29.73 "Hg10 mi
6:53 PM100 °FSunny.8 mph14%29.72 "Hg10 mi
5:53 PM102 °FSunny.No wind13%29.71 "Hg10 mi
4:53 PM103 °FSunny.5 mph13%29.72 "Hg10 mi
3:53 PM102 °FSunny.8 mph13%29.73 "Hg10 mi
2:53 PM101 °FSunny.6 mph14%29.75 "Hg10 mi
1:53 PM101 °FSunny.6 mph14%29.78 "Hg10 mi
12:53 PM100 °FSunny.9 mph14%29.80 "Hg10 mi
11:53 AM100 °FSunny.12 mph14%29.83 "Hg10 mi
10:53 AM97 °FSunny.6 mph16%29.85 "Hg10 mi
9:53 AM95 °FSunny.5 mph17%29.87 "Hg10 mi
8:53 AM90 °FSunny.3 mph21%29.88 "Hg10 mi
7:53 AM87 °FSunny.7 mph23%29.88 "Hg10 mi
6:53 AM79 °FSunny.No wind31%29.87 "Hg10 mi
5:53 AM80 °FClear.7 mph29%29.86 "Hg10 mi
4:53 AM79 °FClear.No wind32%29.85 "Hg10 mi
3:53 AM81 °FClear.8 mph30%29.84 "Hg10 mi
2:53 AM82 °FClear.9 mph29%29.84 "Hg10 mi
Weather by CustomWeather, © 2016

See weather overviewHow to use our weather pages